www.pogodaiklimat.ru

Погода и климат >> Архив погоды >> Бразилия >> Баия >> Иботирама


ПОГОДА в Иботираме

  • Прогноз погоды в Иботираме
  • Монитор погоды в Иботираме

АРХИВ ПОГОДЫ в Иботираме

Время (UTC), дата Ветер
(напр.,м/с)
 
Видим.   Явления Облачность Т
(С)
Тd
(С)
f
(%)
Тe
(С)
Тes
(С)
Комфортность P
(гПа)
Po
(гПа)
Тmin
(С)
Tmax
(С)
R
(мм)
R24
(мм)
S
(см)
07 18.05 ЮВ 1
{2}
н/о н/о +21.8 +20.4 92 +28 +28 душно 1013.6 964.9 0.2
08 18.05 ЮВ 1
{2}
н/о н/о +21.7 +20.4 92 +27 +27 душно 1013.6 964.9 0.2
09 18.05 штиль 0
{2}
н/о н/о +21.5 +20.3 93 +27 +27 душно 1014.5 965.7
10 18.05 штиль 0
{1}
н/о н/о +21.7 +20.5 93 +27 +27 душно 1014.9 966.1
11 18.05 Ю 1
{2}
н/о н/о +22.9 +21.0 89 +30 +30 очень
душно
1015.1 966.5
12 18.05 Ю 1
{3}
н/о н/о +25.0 +21.3 80 +32 +32 очень
душно
1015.7 967.4
13 18.05 Ю 2
{4}
н/о н/о +27.2 +19.8 64 +33 +33 очень
душно
1015.2 967.3
14 18.05 ЮЗ 1
{3}
н/о н/о +29.1 +20.0 58 +35 +35 очень
душно
1014.3 966.7
15 18.05 С 1
{3}
н/о н/о +29.8 +19.5 54 +36 +36 очень
душно
1013.5 966.0
16 18.05 ЮВ 1
{3}
н/о н/о +29.8 +18.5 51 +35 +35 очень
душно
1012.5 965.1
17 18.05 ЮЗ 2
{3}
н/о н/о +31.6 +18.2 45 +36 +36 очень
душно
1011.0 963.9
18 18.05 Ю 2
{4}
н/о н/о +32.0 +17.3 41 +36 +36 очень
душно
1010.2 963.2
19 18.05 Ю 2
{4}
н/о н/о +31.4 +16.9 42 +35 +35 очень
душно
1010.1 963.0
20 18.05 Ю 2
{4}
н/о н/о +30.2 +17.8 47 +34 +34 очень
душно
1010.5 963.2
21 18.05 Ю 1
{3}
н/о н/о +27.5 +19.1 60 +33 +33 очень
душно
1011.2 963.5
22 18.05 ЮВ 1
{1}
н/о н/о +26.2 +19.6 67 +32 +32 очень
душно
1011.8 963.9
23 18.05 Ю 1
{1}
н/о н/о +24.5 +19.3 73 +30 +30 очень
душно
1012.8 964.5
00 19.05 штиль 0
{1}
н/о н/о +23.7 +20.2 81 +29 +29 душно 1013.2 964.8
01 19.05 штиль 0 н/о н/о +23.3 +20.1 82 +30 +30 очень
душно
1013.5 965.0
02 19.05 штиль 0 н/о н/о +22.8 +20.7 88 +30 +30 очень
душно
1013.7 965.1
03 19.05 штиль 0
{1}
н/о н/о +22.0 +20.2 90 +28 +28 душно 1013.8 965.1
04 19.05 Ю 2
{2}
н/о н/о +21.7 +19.3 86 +27 +27 душно 1013.2 964.5
05 19.05 штиль 0
{2}
н/о н/о +21.4 +19.5 89 +26 +26 душно 1013.0 964.2
06 19.05 штиль 0
{1}
н/о н/о +20.9 +19.3 91 +25 +25 комфорт 1013.0 964.2
07 19.05 штиль 0
{1}
н/о н/о +21.0 +19.3 90 +25 +25 комфорт 1013.0 964.2
08 19.05 Ю 1
{1}
н/о н/о +20.3 +18.8 91 +25 +25 комфорт 1013.6 964.6
09 19.05 штиль 0
{2}
н/о н/о +20.0 +18.5 91 +23 +23 комфорт 1014.1 965.1
10 19.05 штиль 0
{1}
н/о н/о +21.3 +18.8 86 +26 +26 душно 1014.3 965.5
11 19.05 штиль 0
{1}
н/о н/о +24.7 +19.5 73 +30 +30 очень
душно
1014.2 965.9
12 19.05 ЮВ 1
{2}
н/о н/о +26.8 +18.4 60 +32 +32 очень
душно
1014.3 966.3
13 19.05 ЮЗ 2
{3}
н/о н/о +29.3 +18.9 54 +35 +35 очень
душно
1014.1 966.5
14 19.05 ЮВ 1
{3}
н/о н/о +31.1 +17.6 44 +35 +35 очень
душно
1013.3 966.0
15 19.05 В 2
{4}
н/о н/о +33.2 +17.5 39 +37 +37 очень
душно
1012.1 965.2
16 19.05 ЮВ 1
{4}
н/о н/о +32.4 +16.8 39 +36 +36 очень
душно
1011.1 964.1
17 19.05 СВ 1
{3}
н/о н/о +34.1 +15.0 32 +36 +36 душно 1009.5 962.9
18 19.05 ЮВ 1
{2}
н/о н/о +33.8 +15.3 33 +36 +36 очень
душно
1008.7 962.1
19 19.05 ЮВ 2
{3}
н/о н/о +32.2 +17.2 41 +36 +36 очень
душно
1009.1 962.2
20 19.05 СВ 1
{3}
н/о н/о +29.2 +19.3 55 +35 +35 очень
душно
1009.9 962.5
21 19.05 СВ 1
{3}
н/о н/о +28.4 +20.2 61 +35 +35 очень
душно
1010.5 963.0
22 19.05 штиль 0
{1}
н/о н/о +27.2 +20.8 68 +34 +34 очень
душно
1011.4 963.6
23 19.05 СВ 1
{2}
н/о н/о +27.2 +20.2 66 +34 +34 очень
душно
1012.1 964.3
00 20.05 СВ 1
{2}
н/о н/о +26.6 +19.6 65 +32 +32 очень
душно
1012.6 964.7
01 20.05 Ю 1
{1}
н/о н/о +24.8 +20.9 79 +31 +31 очень
душно
1013.3 965.1
02 20.05 штиль 0
{1}
н/о н/о +23.9 +20.5 81 +30 +30 очень
душно
1013.7 965.3
03 20.05 штиль 0
{1}
н/о н/о +23.4 +20.2 82 +31 +31 очень
душно
1013.8 965.3
04 20.05 штиль 0
{1}
н/о н/о +24.3 +19.5 75 +30 +30 очень
душно
1013.1 964.8
05 20.05 штиль 0
{1}
н/о н/о +22.7 +20.1 85 +29 +29 очень
душно
1012.7 964.2
06 20.05 штиль 0
{1}
н/о н/о +21.9 +20.2 90 +28 +28 душно 1012.5 963.8
07 20.05 штиль 0
{1}
н/о н/о +21.9 +20.1 90 +28 +28 душно 1012.2 963.6
08 20.05 штиль 0 н/о н/о +21.4 +19.8 91 +26 +26 душно 1012.7 964.0
09 20.05 штиль 0
{1}
н/о н/о +20.8 +19.2 91 +25 +25 комфорт 1013.4 964.5
10 20.05 штиль 0
{1}
н/о н/о +22.4 +19.7 85 +28 +28 душно 1013.9 965.3
11 20.05 В 1
{2}
н/о н/о +27.5 +18.3 57 +32 +32 очень
душно
1013.9 966.1
12 20.05 В 1
{2}
н/о н/о +29.3 +16.9 47 +33 +33 душно 1014.4 966.8
13 20.05 В 1
{3}
н/о н/о +30.9 +15.7 40 +34 +34 душно 1014.1 966.8
14 20.05 СВ 1
{3}
н/о н/о +32.2 +14.8 35 +34 +34 душно 1013.5 966.4
15 20.05 В 1
{3}
н/о н/о +33.5 +13.8 30 +34 +34 очень
жарко
1011.9 965.1
16 20.05 СВ 1
{3}
н/о н/о +34.5 +14.0 29 +35 +35 очень
жарко
1010.6 964.0
17 20.05 В 1
{3}
н/о н/о +35.2 +13.9 28 +36 +36 очень
жарко
1009.7 963.2
18 20.05 ЮВ 1
{3}
н/о н/о +34.2 +13.0 28 +35 +35 очень
жарко
1009.3 962.7
19 20.05 ЮВ 1
{3}
н/о н/о +34.0 +14.0 30 +35 +35 очень
жарко
1009.2 962.6
20 20.05 штиль 0
{2}
н/о н/о +33.8 +13.7 30 +35 +35 очень
жарко
1009.4 962.7
21 20.05 штиль 0
{2}
н/о н/о +30.0 +16.0 43 +33 +33 душно 1010.2 962.9
22 20.05 В 1
{2}
н/о н/о +29.6 +17.0 47 +33 +33 душно 1010.7 963.3
23 20.05 В 2
{4}
н/о н/о +29.4 +17.1 48 +33 +33 душно 1011.1 963.7
00 21.05 штиль 0
{3}
н/о н/о +26.2 +18.0 61 +31 +31 очень
душно
1012.2 964.2
01 21.05 ЮВ 1
{2}
н/о н/о +27.2 +17.5 55 +31 +31 душно 1012.3 964.5
02 21.05 ЮВ 1
{2}
н/о н/о +25.5 +18.3 64 +30 +30 душно 1012.8 964.7
03 21.05 штиль 0
{2}
н/о н/о +24.6 +18.3 68 +29 +29 душно 1012.9 964.7
04 21.05 ЮВ 1
{2}
н/о н/о +25.9 +17.1 58 +30 +30 душно 1012.3 964.3
05 21.05 штиль 0
{2}
н/о н/о +22.9 +18.5 76 +29 +29 очень
душно
1012.4 963.9
06 21.05 Ю 1
{2}
н/о н/о +22.1 +18.3 79 +27 +27 душно 1012.3 963.7
07 21.05 штиль 0
{1}
н/о н/о +22.3 +19.2 83 +28 +28 душно 1012.0 963.4
08 21.05 штиль 0
{1}
н/о н/о +21.7 +18.9 84 +27 +27 душно 1012.6 963.9
09 21.05 штиль 0 н/о н/о +21.5 +19.2 87 +26 +26 душно 1013.3 964.5
10 21.05 штиль 0
{1}
н/о н/о +22.9 +19.6 82 +29 +29 очень
душно
1013.7 965.1
11 21.05 штиль 0
{1}
н/о н/о +25.2 +18.7 67 +30 +30 душно 1014.3 966.1
12 21.05 штиль 0
{2}
н/о н/о +28.6 +18.7 55 +34 +34 очень
душно
1014.3 966.6
13 21.05 В 2
{4}
н/о н/о +31.3 +16.9 42 +35 +35 очень
душно
1014.0 966.7
14 21.05 В 2
{4}
н/о н/о +32.4 +17.0 40 +36 +36 очень
душно
1013.3 966.2
15 21.05 ЮВ 1
{4}
н/о н/о +33.1 +16.6 37 +36 +36 очень
душно
1012.1 965.2
16 21.05 В 1
{3}
н/о н/о +33.7 +16.4 36 +37 +37 очень
душно
1011.0 964.2
17 21.05 ЮЗ 1
{3}
н/о н/о +34.5 +16.6 34 +37 +37 очень
душно
1009.9 963.3
18 21.05 ЮВ 2
{4}
н/о н/о +34.1 +16.0 34 +37 +37 очень
душно
1009.3 962.7
19 21.05 ЮЗ 1
{3}
н/о н/о +34.8 +15.4 31 +37 +37 очень
душно
1008.9 962.4
20 21.05 Ю 2
{5}
н/о н/о +33.2 +16.4 37 +36 +36 очень
душно
1009.4 962.6
21 21.05 Ю 1
{3}
н/о н/о +29.9 +17.7 48 +34 +34 очень
душно
1010.2 962.9
22 21.05 ЮВ 1
{2}
н/о н/о +28.5 +18.3 54 +33 +33 очень
душно
1010.9 963.4
23 21.05 Ю 1
{2}
н/о н/о +26.4 +18.3 61 +31 +31 душно 1011.8 963.9
00 22.05 ЮВ 1
{2}
н/о н/о +26.5 +17.5 58 +31 +31 душно 1012.2 964.3
01 22.05 З 1
{2}
н/о н/о +24.5 +17.9 67 +29 +29 душно 1012.9 964.6
02 22.05 штиль 0
{2}
н/о н/о +25.0 +19.0 69 +30 +30 душно 1013.0 964.8
03 22.05 ЮЗ 1
{1}
н/о н/о +23.4 +18.9 76 +30 +30 очень
душно
1013.5 965.0
04 22.05 ЮЗ 1
{2}
н/о н/о +23.6 +18.7 74 +28 +28 душно 1013.2 964.8
05 22.05 штиль 0
{2}
н/о н/о +23.2 +19.0 77 +29 +29 душно 1013.0 964.5
06 22.05 Ю 1
{1}
н/о н/о +22.7 +19.2 81 +29 +29 очень
душно
1012.6 964.1
07 22.05 ЮЗ 1
{2}
н/о н/о +21.9 +19.4 86 +27 +27 душно 1013.0 964.3
08 22.05 Ю 1
{2}
н/о н/о +22.1 +18.7 81 +27 +27 душно 1013.3 964.6
09 22.05 штиль 0
{1}
н/о н/о +21.7 +18.9 84 +27 +27 душно 1013.9 965.1
10 22.05 штиль 0 н/о н/о +22.1 +18.9 82 +27 +27 душно 1014.3 965.6
11 22.05 штиль 0
{1}
н/о н/о +25.9 +18.9 65 +31 +31 очень
душно
1014.5 966.4
12 22.05 штиль 0
{1}
н/о н/о +28.7 +18.7 55 +34 +34 очень
душно
1014.5 966.8
13 22.05 ЮЗ 1
{2}
н/о н/о +30.3 +19.1 51 +36 +36 очень
душно
1014.0 966.6
14 22.05 ЮЗ 1
{4}
н/о н/о +31.7 +17.9 44 +36 +36 очень
душно
1013.3 966.1
15 22.05 ЮЗ 1
{3}
н/о н/о +33.9 +16.6 36 +37 +37 очень
душно
1012.0 965.2
16 22.05 штиль 0
{3}
н/о н/о +33.6 +17.0 37 +37 +37 очень
душно
1011.0 964.2
17 22.05 Ю 1
{2}
н/о н/о +35.5 +16.0 31 +38 +38 очень
душно
1009.6 963.2
18 22.05 Ю 1
{3}
н/о н/о +35.9 +15.1 29 +37 +37 душно 1008.7 962.4
19 22.05 Ю 2
{4}
н/о н/о +34.8 +14.5 30 +36 +36 душно 1008.6 962.1
20 22.05 Ю 1
{3}
н/о н/о +33.7 +15.6 34 +36 +36 очень
душно
1008.5 961.9
21 22.05 Ю 1
{3}
н/о н/о +30.3 +16.2 43 +34 +34 очень
душно
1009.5 962.3
22 22.05 В 1
{1}
н/о н/о +28.8 +16.7 48 +32 +32 душно 1010.3 962.8
23 22.05 ЮВ 1
{2}
н/о н/о +27.5 +17.0 53 +31 +31 душно 1011.1 963.4
00 23.05 В 1
{3}
н/о н/о +28.8 +15.9 46 +32 +32 душно 1011.3 963.8
01 23.05 штиль 0
{2}
н/о н/о +24.9 +18.9 69 +30 +30 душно 1012.4 964.2
02 23.05 штиль 0
{2}
н/о н/о +24.8 +17.8 65 +29 +29 душно 1012.9 964.7
03 23.05 штиль 0
{1}
н/о н/о +24.8 +18.4 68 +29 +29 душно 1012.8 964.6
04 23.05 штиль 0
{1}
н/о н/о +23.6 +18.9 75 +28 +28 душно 1012.7 964.3
05 23.05 штиль 0
{1}
н/о н/о +22.5 +18.8 80 +28 +28 душно 1012.5 963.9
06 23.05 штиль 0
{1}
н/о н/о +24.7 +18.4 68 +29 +29 душно 1011.8 963.6
07 23.05 штиль 0
{1}
н/о н/о +22.6 +19.6 83 +29 +29 очень
душно
1012.4 963.9
08 23.05 штиль 0
{1}
н/о н/о +22.5 +18.9 80 +28 +28 душно 1013.1 964.5
09 23.05 штиль 0
{1}
н/о н/о +21.5 +18.3 82 +26 +26 душно 1013.9 965.1
10 23.05 штиль 0
{1}
н/о н/о +22.5 +18.7 79 +28 +28 душно 1014.5 965.8
11 23.05 СЗ 1
{1}
н/о н/о +25.3 +19.2 69 +30 +30 душно 1014.8 966.6
12 23.05 штиль 0
{2}
н/о н/о +28.1 +18.3 55 +33 +33 очень
душно
1014.7 966.9
13 23.05 ЮЗ 1
{2}
н/о н/о +30.1 +17.9 48 +35 +35 очень
душно
1014.0 966.6
14 23.05 В 1
{2}
н/о н/о +33.2 +17.3 39 +37 +37 очень
душно
1012.9 966.0
15 23.05 З 1
{3}
н/о н/о +33.7 +16.6 36 +37 +37 очень
душно
1011.8 965.0
16 23.05 ЮЗ 1
{3}
н/о н/о +33.7 +16.2 35 +36 +36 очень
душно
1010.6 963.9
17 23.05 З 1
{3}
н/о н/о +34.4 +14.0 29 +35 +35 очень
жарко
1009.6 963.0
18 23.05 ЮЗ 2
{3}
н/о н/о +35.0 +15.0 30 +36 +36 очень
жарко
1008.8 962.3
19 23.05 ЮЗ 2
{3}
н/о н/о +34.4 +15.9 33 +37 +37 очень
душно
1008.6 962.1
20 23.05 ЮЗ 1
{3}
н/о н/о +33.0 +15.4 35 +35 +35 душно 1009.1 962.3
21 23.05 штиль 0
{3}
н/о н/о +30.3 +16.0 42 +33 +33 душно 1009.6 962.4
22 23.05 ЮВ 1
{1}
н/о н/о +29.1 +17.2 49 +33 +33 очень
душно
1010.1 962.7
23 23.05 ЮВ 1
{1}
н/о н/о +27.9 +17.5 53 +32 +32 душно 1010.8 963.2
00 24.05 штиль 0
{2}
н/о н/о +26.1 +18.0 61 +31 +31 очень
душно
1011.5 963.6
01 24.05 З 1
{1}
н/о н/о +25.1 +19.4 71 +30 +30 душно 1011.9 963.8
02 24.05 ЮЗ 1
{2}
н/о н/о +24.1 +18.1 69 +28 +28 душно 1012.3 964.0
03 24.05 штиль 0
{1}
н/о н/о +24.3 +19.1 73 +29 +29 душно 1012.4 964.1
04 24.05 штиль 0
{1}
н/о н/о +23.7 +17.7 69 +28 +28 душно 1012.4 964.0
05 24.05 штиль 0
{1}
н/о н/о +21.7 +18.0 79 +26 +26 душно 1012.5 963.8
06 24.05 штиль 0
{1}
н/о н/о +22.0 +18.0 78 +27 +27 душно 1012.3 963.7
07 24.05 штиль 0
{1}
н/о н/о +20.9 +17.8 82 +25 +25 комфорт 1012.9 964.1
08 24.05 штиль 0 н/о н/о +20.8 +18.2 85 +25 +25 комфорт 1013.2 964.3
09 24.05 СВ 1
{1}
н/о н/о +20.9 +18.3 85 +27 +27 душно 1013.8 964.9
10 24.05 штиль 0
{1}
н/о н/о +22.7 +18.1 75 +28 +28 душно 1014.1 965.5
11 24.05 штиль 0
{1}
н/о н/о +26.1 +18.3 62 +31 +31 очень
душно
1014.6 966.5
12 24.05 штиль 0
{1}
н/о н/о +28.8 +17.7 51 +33 +33 очень
душно
1014.7 967.0
13 24.05 СВ 1
{2}
н/о н/о +30.7 +16.3 42 +34 +34 очень
душно
1014.1 966.7
14 24.05 В 1
{3}
н/о н/о +32.6 +15.4 36 +35 +35 душно 1013.3 966.3
15 24.05 Ю 1
{3}
н/о н/о +33.7 +15.3 33 +36 +36 очень
душно
1012.2 965.4
16 24.05 З 2
{3}
н/о н/о +34.3 +15.6 33 +36 +36 душно 1010.8 964.1
17 24.05 ЮЗ 2
{3}
н/о н/о +35.6 +15.3 30 +37 +37 душно 1009.3 962.9
18 24.05 ЮЗ 2
{3}
н/о н/о +35.2 +13.8 28 +36 +36 очень
жарко
1008.5 962.1
19 24.05 Ю 1
{4}
н/о н/о +35.2 +14.7 29 +36 +36 очень
жарко
1008.4 962.0
20 24.05 Ю 1
{3}
н/о н/о +33.6 +14.0 31 +35 +35 душно 1008.9 962.2
21 24.05 Ю 1
{2}
н/о н/о +30.2 +14.9 39 +32 +32 жарко 1009.7 962.5
22 24.05 штиль 0
{2}
н/о н/о +28.3 +15.9 47 +31 +31 душно 1010.6 963.0
23 24.05 штиль 0
{1}
н/о н/о +24.7 +16.8 61 +28 +28 душно 1011.7 963.5
00 25.05 штиль 0
{1}
н/о н/о +24.5 +16.6 61 +28 +28 душно 1011.9 963.7
01 25.05 штиль 0 н/о н/о +22.4 +17.7 75 +27 +27 душно 1012.7 964.1
02 25.05 штиль 0
{1}
н/о н/о +22.4 +18.0 76 +27 +27 душно 1012.6 964.0
03 25.05 З 1
{1}
н/о н/о +20.7 +17.3 81 +25 +25 комфорт 1013.0 964.1
04 25.05 ЮВ 1
{2}
н/о н/о +21.7 +17.1 75 +26 +26 душно 1012.8 964.1
05 25.05 Ю 1
{2}
н/о н/о +21.9 +17.4 76 +26 +26 душно 1012.7 964.0
06 25.05 штиль 0
{1}
н/о н/о +20.9 +17.7 82 +25 +25 комфорт 1012.8 964.0

 

Местоположение метеостанции Иботирама (Баия, Бразилия): широта -12.20 долгота -43.22 высота над уровнем моря 432 м.

В архиве по умолчанию представлена погода в Иботираме за последнюю неделю. Архивные данные за месяц целиком и за предыдущие месяцы, начиная с января 2011 года, Вы можете получить, выбрав интересующий диапазон дат из раскрывающегося списка и нажав кнопку "Ввод!".


*Определитесь, кто Вы:
робот инопланетянин человек

Внимание! Время в таблицах - всемирное. Для получения местного времени необходимо прибавить поправку, которая равна -3 ч.

Смотрите также архив погоды в соседних городах и на ближайших метеорологических станциях:

Погода в Макаубасе (Баия, Бразилия) (114 км)
Погода в Бом-Иисус-да-Лапа (Баия, Бразилия) (120 км)
Погода в Бон-Жезус-да-Лапе (Баия, Бразилия) (121 км)
Погода в Барре (Баия, Бразилия) (125 км)
Погода в Барре (Баия, Бразилия) (125 км)
Погода в Буритираме (Баия, Бразилия) (171 км)
Погода в Иресе (Баия, Бразилия) (176 км)
Погода в Пиате (Баия, Бразилия) (190 км)
Погода в Баррейрасе (Баия, Бразилия) (194 км)
Погода в Баррейрасе (Баия, Бразилия) (194 км)

Пояснения к столбцам:

Ветер - указаны скорость ветра в м/с - средняя за 10 мин, порывы в срок и между сроками (в фигурных скобках) и направление, откуда дует ветер: С - северный, СВ - северо-восточный, В - восточный, ЮВ - юго-восточный, Ю - южный, ЮЗ - юго-западный, З - западный, СЗ - северо-западный.
Видимость - горизонтальная дальность видимости в метрах или километрах. При видимости от 1 до 10 км при отсутствии осадков обычно наблюдается дымка, при ухудшении видимости до 1 км и менее - туман. В сухую погоду видимость может ухудшаться дымом, пылью или мглою.
Явления - указаны атмосферные явления, наблюдавшиеся в срок или в последний час перед сроком; фигурными скобками обозначены явления, наблюдавшиеся между сроками (за 1-3 часа до срока); квадратными скобками обозначены град или гололедные отложения с указанием их диаметра в мм.
Облачность - указаны через наклонную черту общая и нижняя облачность в баллах и высота нижней границы облаков в метрах; квадратными скобками обозначены формы облаков: Ci - перистые, Cs - перисто-слоистые, Cc - перисто-кучевые, Ac - высококучевые, As - высокослоистые, Sc - слоисто-кучевые, Ns - слоисто-дождевые, Cu - кучевые, Cb - кучево-дождевые. Подробнее классификацию облаков см. в Атласе облаков (PDF).
T - Температура воздуха - температура, измеренная на высоте 2 м над землей.
Td - Температура точки росы - температура, при понижении до которой содержащийся в воздухе водяной пар достигнет насыщения.
f - Относительная влажность воздуха - влажноcть воздуха, измеренная на высоте 2 м над землей.
Te - Эффективная температура - температура, которую ощущает одетый по сезону человек в тени. Характеристика душности погоды. При расчете учитывается влияние влажности воздуха и скорости ветра на теплоощущения человека.
Tes - Эффективная температура на солнце - температура, которую ощущает человек, с поправкой на солнечный нагрев. Характеристика знойности погоды. Зависит от высоты солнца над горизонтом, облачности и скорости ветра. Ночью, в пасмурную погоду, а также при ветре 12 м/с и более поправка равна нулю.
P - Атмосферное давление - приведенное к уровню моря атмосферное давление.
Po - Атмосферное давление - измеренное на уровне метеостанции атмосферное давление.
Tmin - Минимальная температура - минимум температуры воздуха на высоте 2 м над землей.
Tmax - Максимальная температура - максимум температуры воздуха на высоте 2 м над землей.
R - Количество осадков - Количество выпавших осадков за период времени, мм. При наведении курсора мыши на число - период времени, за который выпало указанное количество осадков.
R24 - Количество осадков - Количество выпавших осадков за 24 часа, мм.
S - Снежный покров - Высота снежного покрова, см. При наведении курсора мыши на число - состояние снежного покрова и степень покрытия местности в баллах.